FW8074 Weather Reports


Display with metric or nautical units.
time (UTC)temp
F
wind
direction
speed
MPH
gust
MPH
rain 1hr
in
rain 24hr
in
rain mn
in
humidity
%
barometer
mb
20260904003105 84 0 0.0 0.0 0.00 0.00 0.00 77 1012.9
20260904001608 85 0 0.0 0.0 0.00 0.00 0.00 75 1012.8
20260904000110 86 0 0.0 0.0 0.00 0.00 0.00 75 1012.7
20260903234607 87 0 0.0 0.0 0.00 0.00 0.00 75 1012.5
20260903233106 87 0 0.0 0.0 0.00 0.00 0.00 74 1012.3
20260903231605 89 0 0.0 0.0 0.00 0.00 0.00 73 1012.2
20260903230108 90 0 0.0 0.0 0.00 0.00 0.00 71 1012.3
20260903224603 90 0 0.0 0.0 0.00 0.00 0.00 69 1012.2
20260903223101 91 0 0.0 0.0 0.00 0.00 0.00 68 1012.2
20260903221604 91 0 0.0 0.0 0.00 0.00 0.00 67 1012.4
20260903220107 91 0 0.0 0.0 0.00 0.00 0.00 71 1012.3
20260903214614 92 0 0.0 0.0 0.00 0.00 0.00 69 1012.4
20260903213059 91 0 0.0 0.0 0.00 0.00 0.00 66 1012.2
20260903211612 93 0 0.0 0.0 0.00 0.00 0.00 67 1012.3
20260903204603 94 0 0.0 0.0 0.00 0.00 0.00 61 1012.4
20260903203108 95 0 0.0 0.0 0.00 0.00 0.00 61 1012.5
20260903201609 96 0 0.0 0.0 0.00 0.00 0.00 58 1012.7
20260903200104 95 0 0.0 0.0 0.00 0.00 0.00 58 1012.7
20260903194602 95 0 0.0 0.0 0.00 0.00 0.00 58 1012.9
20260903193110 95 0 0.0 0.0 0.00 0.00 0.00 58 1013.0
20260903191603 95 0 0.0 0.0 0.00 0.00 0.00 58 1013.2
20260903190106 95 0 0.0 0.0 0.00 0.00 0.00 61 1013.5
20260903184606 95 0 0.0 0.0 0.00 0.00 0.00 61 1013.7
20260903183106 94 0 0.0 0.0 0.00 0.00 0.00 63 1013.8
20260903181605 94 0 0.0 0.0 0.00 0.00 0.00 64 1013.9
20260903180104 95 0 0.0 0.0 0.00 0.00 0.00 62 1013.9
20260903174608 94 0 0.0 0.0 0.00 0.00 0.00 64 1014.0
20260903173106 94 0 0.0 0.0 0.00 0.00 0.00 63 1014.1
20260903171603 93 0 0.0 0.0 0.00 0.00 0.00 65 1014.1
20260903170107 93 0 0.0 0.0 0.00 0.00 0.00 64 1014.3
20260903164606 92 0 0.0 0.0 0.00 0.00 0.00 65 1014.6
20260903163106 92 0 0.0 0.0 0.00 0.00 0.00 66 1014.7
20260903161606 92 0 0.0 0.0 0.00 0.00 0.00 66 1014.8
20260903154606 91 0 0.0 0.0 0.00 0.00 0.00 70 1015.0
20260903153130 91 0 0.0 0.0 0.00 0.00 0.00 68 1014.9
20260903151617 90 0 0.0 0.0 0.00 0.00 0.00 70 1015.0
20260903150121 90 0 0.0 0.0 0.00 0.00 0.00 69 1015.0
20260903144611 89 0 0.0 0.0 0.00 0.00 0.00 69 1015.0
20260903143109 89 0 0.0 0.0 0.00 0.00 0.00 70 1015.0
20260903141604 89 0 0.0 0.0 0.00 0.00 0.00 72 1014.7
20260903140106 88 0 0.0 0.0 0.00 0.00 0.00 74 1014.8
20260903134605 86 0 0.0 0.0 0.00 0.00 0.00 78 1014.8
20260903133106 84 0 0.0 0.0 0.00 0.00 0.00 85 1015.0
20260903131605 83 0 0.0 0.0 0.00 0.00 0.00 86 1015.1
20260903124608 77 0 0.0 0.0 0.00 0.00 0.00 97 1015.1
20260903123103 75 0 0.0 0.0 0.00 0.00 0.00 99 1015.2
20260903121640 75 0 0.0 0.0 0.00 0.00 0.00 99 1015.1
20260903114604 74 0 0.0 0.0 0.00 0.00 0.00 98 1014.9
20260903113105 74 0 0.0 0.0 0.00 0.00 0.00 98 1014.8
20260903111609 73 0 0.0 0.0 0.00 0.00 0.00 98 1014.8
20260903110104 74 0 0.0 0.0 0.00 0.00 0.00 98 1014.5
20260903104627 74 0 0.0 0.0 0.00 0.00 0.00 98 1014.4
20260903103107 74 0 0.0 0.0 0.00 0.00 0.00 98 1014.3
20260903101604 74 0 0.0 0.0 0.00 0.00 0.00 98 1014.2
20260903100106 74 0 0.0 0.0 0.00 0.00 0.00 97 1014.1
20260903094616 75 0 0.0 0.0 0.00 0.00 0.00 97 1014.2
20260903093109 75 0 0.0 0.0 0.00 0.00 0.00 97 1014.2
20260903091603 75 0 0.0 0.0 0.00 0.00 0.00 97 1014.2
20260903090106 75 0 0.0 0.0 0.00 0.00 0.00 97 1014.3
20260903084604 75 0 0.0 0.0 0.00 0.00 0.00 96 1014.2
20260903083107 75 0 0.0 0.0 0.00 0.00 0.00 96 1014.0
20260903081634 75 0 0.0 0.0 0.00 0.00 0.00 96 1013.9
20260903080104 76 0 0.0 0.0 0.00 0.00 0.00 95 1014.0
20260903074604 76 0 0.0 0.0 0.00 0.00 0.00 95 1014.0
20260903073101 76 0 0.0 0.0 0.00 0.00 0.00 94 1013.7
20260903071604 77 0 0.0 0.0 0.00 0.00 0.00 94 1013.7
20260903070105 77 0 0.0 0.0 0.00 0.00 0.00 93 1013.5
20260903064601 77 0 0.0 0.0 0.00 0.00 0.00 93 1013.4
20260903063109 77 0 0.0 0.0 0.00 0.00 0.00 93 1013.3
20260903061605 78 0 0.0 0.0 0.00 0.00 0.00 92 1013.5
20260903060105 78 0 0.0 0.0 0.00 0.00 0.00 91 1013.5
20260903054616 78 0 0.0 0.0 0.00 0.00 0.00 91 1013.6
20260903053104 79 0 0.0 0.0 0.00 0.00 0.00 91 1013.7
20260903051602 79 0 0.0 0.0 0.00 0.00 0.00 90 1013.7
20260903050107 79 0 0.0 0.0 0.00 0.00 0.00 90 1013.7
20260903044603 80 0 0.0 0.0 0.00 0.00 0.00 89 1013.6
20260903043104 81 0 0.0 0.0 0.00 0.00 0.00 88 1013.2
20260903041602 81 0 0.0 0.0 0.00 0.00 0.00 88 1013.4
20260903040110 80 0 0.0 0.0 0.00 0.00 0.00 89 1013.4
20260903034607 80 0 0.0 0.0 0.00 0.00 0.00 90 1013.4
20260903033106 79 0 0.0 0.0 0.00 0.00 0.00 92 1013.6
20260903031613 79 0 0.0 0.0 0.00 0.00 0.00 91 1014.1
20260903030135 80 0 0.0 0.0 0.00 0.00 0.00 91 1014.3
20260903024603 80 0 0.0 0.0 0.00 0.00 0.00 91 1014.5
20260903023113 80 0 0.0 0.0 0.00 0.00 0.00 91 1014.7
20260903021600 81 0 0.0 0.0 0.00 0.00 0.00 90 1014.8
20260903020108 81 0 0.0 0.0 0.00 0.00 0.00 89 1014.8
20260903014616 82 0 0.0 0.0 0.00 0.00 0.00 89 1014.6
20260903013104 82 0 0.0 0.0 0.00 0.00 0.00 89 1014.2
20260903011606 83 0 0.0 0.0 0.00 0.00 0.00 87 1014.2
20260903010104 83 0 0.0 0.0 0.00 0.00 0.00 86 1014.0
20260903004606 83 0 0.0 0.0 0.00 0.00 0.00 83 1013.7